Wetbulb
53.25 52.99 52.60 52.25 52.13 51.77 51.90 51.78 52.18 52.87 53.39 53.61 53.76 53.79 53.62 53.24 53.87 52.88 54.09 56.64 51.63 48.08 49.44 51.33 52.07 49.66 49.40 49.37 46.17 49.48 48.49 50.69 50.91 47.56 47.22 46.74 45.87 49.53 52.29 55.55 56.12 56.10 52.11 54.62 57.33 54.76 51.74 61.53 60.17 57.29 60.95 62.16 61.88 63.91
53.29 52.84 52.39 52.10 51.93 51.66 51.53 51.44 51.88 52.84 53.20 53.33 53.51 53.55 53.64 53.47 53.64 53.59 51.69 55.43 55.28 50.07 49.53 52.78 52.88 53.64 52.21 51.53 48.65 48.49 47.77 48.16 49.33 47.10 48.30 48.81 47.11 49.55 51.67 50.15 57.70 53.77 57.58 57.03 57.79 58.50 65.27 64.61 63.23 62.59 62.73 64.31 63.54 64.39
52.80 52.24 52.13 51.92 51.78 51.28 51.32 50.94 51.42 52.74 53.12 53.18 53.41 53.49 53.37 53.40 53.60 52.60 51.11 53.60 53.61 49.62 49.23 50.92 50.75 54.10 55.78 54.94 54.67 46.95 49.09 49.92 48.92 50.78 47.74 46.94 44.34 48.62 48.58 53.37 56.97 60.57 61.44 56.71 58.81 59.95 59.95 63.14 63.42 64.47 64.29 64.11 64.33 63.69
53.02 51.96 51.69 51.65 51.57 51.21 50.96 50.89 51.44 52.36 53.17 53.22 53.37 53.43 53.50 53.29 53.24 52.95 51.12 53.48 52.83 50.07 44.68 49.29 54.84 52.04 54.85 54.28 53.52 53.08 51.57 51.95 51.12 50.28 46.96 45.89 45.05 50.45 47.22 51.64 52.69 56.03 57.53 58.43 60.57 63.12 62.38 62.40 63.94 64.52 65.09 63.92 64.17 64.93
52.97 52.07 51.61 51.25 50.98 50.93 50.81 50.94 51.63 52.59 52.88 53.24 53.36 53.34 53.12 53.05 53.38 52.85 53.35 54.39 54.97 49.55 44.20 46.18 50.70 53.77 55.09 54.11 52.78 52.97 51.68 49.88 48.76 46.92 46.13 44.80 47.32 48.06 49.00 49.66 48.76 52.52 53.60 53.81 55.21 58.31 60.10 61.44 63.73 63.96 63.98 65.18 65.26 66.82
52.80 52.20 51.63 51.34 50.92 50.96 50.87 51.23 52.01 52.53 52.88 53.15 53.07 53.17 53.03 52.90 53.31 52.20 49.86 54.76 55.05 53.78 45.87 42.02 50.55 51.09 53.24 54.18 53.29 52.73 52.80 52.09 50.94 48.50 47.03 49.03 50.88 48.37 45.16 44.61 49.86 50.31 52.15 54.15 56.10 57.42 59.08 61.13 63.62 64.81 65.88 65.67 65.91 67.52
52.76 52.02 51.47 51.24 51.13 50.92 51.36 51.82 52.38 52.55 52.69 52.78 52.96 53.13 53.21 53.16 51.54 48.46 46.96 51.21 51.52 53.38 44.91 41.98 45.01 51.96 53.50 53.57 54.15 54.37 55.47 53.49 52.05 50.32 48.48 48.38 48.73 50.01 47.57 44.25 49.52 50.76 52.34 53.50 53.99 52.57 54.56 60.14 60.83 63.51 63.42 64.37 64.25 67.52
52.30 51.71 51.31 51.16 51.19 51.26 51.78 52.22 52.22 52.30 52.45 52.97 53.12 53.30 53.02 52.71 51.74 49.07 52.74 52.02 52.33 48.73 46.56 40.34 42.84 47.97 54.22 50.47 48.97 53.33 50.73 51.44 51.52 50.91 52.12 50.21 51.03 50.34 45.27 49.42 51.35 51.28 53.22 53.35 53.95 54.32 56.50 62.41 64.46 65.76 64.09 62.34 60.06 61.22
52.02 51.30 51.30 51.16 51.07 51.64 51.87 52.01 52.01 52.36 52.68 52.97 53.14 53.03 52.14 50.89 48.37 50.58 52.95 52.98 53.69 48.53 41.72 40.63 40.35 42.69 52.45 49.80 50.49 50.21 49.99 44.78 51.17 47.80 49.29 49.27 47.70 45.13 49.29 51.57 53.11 53.14 52.55 52.99 53.75 54.82 56.59 58.98 63.68 66.16 67.24 60.22 60.30 62.04
51.69 51.16 51.22 51.08 51.21 51.81 51.79 51.81 52.08 52.53 52.83 52.81 51.58 50.43 46.14 50.62 53.95 53.72 51.16 47.80 46.13 45.80 45.18 41.02 47.08 43.82 49.04 48.35 46.56 43.82 46.29 43.22 43.29 47.84 51.36 47.30 47.21 51.66 52.05 53.07 54.67 55.28 56.71 54.69 52.93 53.84 55.29 57.78 61.19 64.19 66.34 68.07 69.45 68.93
51.28 51.16 51.22 50.98 51.43 51.74 51.54 51.79 52.28 52.48 51.93 51.83 49.40 48.12 52.67 54.51 51.21 47.50 43.48 43.42 43.83 39.56 41.68 43.68 46.45 45.34 51.73 45.20 43.30 45.62 40.52 43.17 40.35 44.84 45.23 42.30 42.24 43.46 48.21 49.10 52.17 53.55 54.19 56.14 56.79 57.11 56.64 59.18 60.37 64.13 65.70 67.68 68.74 70.57
51.24 51.18 50.95 51.18 51.59 51.46 51.50 51.79 51.93 50.81 52.11 48.87 48.24 51.09 51.45 48.42 45.44 41.52 41.43 44.37 43.74 41.10 46.35 45.81 48.12 49.52 49.41 51.34 46.32 43.14 38.76 41.14 37.81 47.30 41.24 39.84 42.19 45.78 46.18 47.15 48.94 50.25 52.51 54.41 57.32 57.61 58.14 58.77 61.34 65.52 66.34 68.30 65.30 65.28
50.96 50.69 50.83 51.24 51.19 51.43 51.71 51.91 52.04 52.16 51.40 51.73 48.25 45.04 43.77 44.01 37.74 37.58 37.74 40.78 42.17 46.11 47.79 47.71 45.77 48.20 50.16 49.45 44.12 42.16 38.61 38.33 45.52 40.49 40.40 43.03 46.57 46.98 45.93 46.99 47.26 48.74 51.68 53.56 55.92 57.88 58.47 60.08 63.60 64.93 66.09 65.48 66.24 63.42
50.76 50.63 51.10 51.10 51.17 51.59 51.73 51.94 51.98 51.48 48.84 43.96 41.06 36.73 39.56 39.09 41.15 43.61 43.62 44.36 47.65 48.66 48.03 48.06 46.31 46.53 50.36 45.07 42.99 38.41 41.89 44.29 39.66 38.62 39.51 45.34 47.25 47.39 46.59 47.59 47.67 47.87 50.17 52.36 54.76 57.03 57.61 59.30 62.23 66.42 66.51 66.42 64.55 64.75
50.45 50.95 50.87 50.98 51.41 51.65 51.86 52.11 52.10 50.85 47.67 43.18 42.14 35.38 40.38 45.65 47.99 48.88 49.81 49.03 49.97 50.57 49.26 47.10 46.91 49.07 47.13 41.28 42.56 41.33 40.33 39.24 41.33 41.09 46.13 49.29 49.28 48.98 46.93 47.60 48.44 49.04 50.71 51.59 53.67 55.89 57.63 59.80 64.22 64.35 63.86 65.59 65.36 64.57
50.66 50.52 49.88 51.10 51.86 51.75 52.00 51.94 50.69 50.12 47.90 44.50 43.14 41.66 46.00 45.90 46.30 47.76 48.74 48.10 51.03 49.82 49.56 48.35 45.69 44.51 42.73 42.14 41.19 40.27 39.08 39.36 44.30 48.24 49.76 52.36 50.44 49.86 48.65 49.04 49.84 51.17 51.54 52.41 53.53 55.07 58.47 60.88 63.78 65.52 64.53 64.18 64.31 65.04
50.23 47.99 51.24 51.10 52.32 52.34 52.00 49.85 49.15 45.07 43.43 41.52 42.42 47.04 46.41 46.78 46.40 47.53 48.76 48.56 51.48 48.09 43.00 44.68 41.33 41.70 47.31 42.44 41.13 45.46 42.25 46.11 49.00 50.29 53.86 52.45 50.16 49.67 49.41 49.64 50.56 52.08 52.26 52.61 54.01 56.29 59.68 62.64 64.00 63.68 63.68 63.92 65.30 65.40
48.56 50.70 51.83 51.60 51.11 50.32 49.80 48.12 46.27 43.97 39.70 43.53 42.68 46.15 48.40 49.10 48.24 48.79 49.95 50.93 48.92 46.99 46.58 42.89 45.86 41.99 40.37 38.90 42.38 46.84 48.36 52.14 53.06 53.43 52.54 53.15 51.95 52.27 51.78 51.21 52.08 52.00 52.10 53.32 56.47 59.46 62.92 64.86 63.21 63.65 63.26 63.52 63.16 63.52
50.06 51.43 51.77 51.03 51.26 49.22 45.04 45.89 47.06 40.39 43.01 46.21 48.27 49.26 49.55 49.15 51.03 51.25 50.71 50.99 51.04 50.91 47.45 46.05 41.88 41.91 43.36 47.33 48.39 48.94 48.42 50.94 51.28 51.89 53.32 53.03 52.76 52.65 52.40 52.47 52.37 52.50 53.37 54.58 58.64 60.85 63.27 66.33 63.93 64.48 62.83 64.16 62.66 62.93
51.80 51.41 51.85 51.33 50.47 48.28 44.40 44.35 49.82 43.12 42.89 47.07 48.76 47.61 48.18 47.89 50.18 50.17 49.50 50.06 49.92 47.07 43.94 42.18 43.74 45.69 46.67 49.61 50.45 49.87 53.06 53.87 52.85 51.69 52.30 52.26 53.33 52.47 51.95 52.29 52.57 53.28 54.38 56.83 59.80 57.23 64.28 64.93 64.03 63.67 62.82 61.67 62.49 62.55
50.56 50.15 50.51 50.47 48.55 47.76 46.85 44.35 43.41 44.99 46.59 45.90 48.49 48.14 47.25 48.95 47.66 47.11 47.65 50.54 46.77 44.54 43.01 46.32 48.10 49.81 52.60 52.87 54.77 54.97 54.04 55.33 53.99 53.49 52.44 50.79 52.18 51.81 52.31 53.40 53.74 55.13 55.60 57.42 61.39 62.10 58.64 63.30 65.46 65.97 64.81 62.35 62.87 65.85
51.76 51.17 49.63 49.56 46.17 46.61 45.40 47.77 45.17 46.78 45.35 47.17 46.96 47.80 45.60 45.52 46.45 47.86 50.74 47.42 47.19 49.64 49.55 49.87 50.82 51.40 51.58 52.51 52.65 55.86 57.75 57.48 56.47 54.50 51.40 52.32 50.98 51.21 51.89 52.79 53.43 54.21 55.88 57.06 60.70 63.58 64.47 66.55 63.71 61.87 63.78 64.90 62.92 66.39
50.58 50.78 49.27 48.00 43.23 41.54 40.04 49.08 43.22 44.94 41.44 43.58 46.41 43.23 43.87 46.26 50.12 51.75 46.91 48.83 49.34 52.45 50.82 51.11 52.85 54.57 53.25 54.36 56.22 55.91 56.83 55.38 53.40 53.48 54.15 54.38 54.08 53.49 53.41 53.52 53.89 54.39 55.26 57.56 61.14 62.70 62.53 62.62 61.11 61.73 61.13 60.31 65.62 66.48
48.74 48.03 44.33 43.12 42.29 38.93 45.90 42.68 44.59 43.51 43.85 42.53 41.62 41.29 44.63 46.81 50.09 47.56 43.50 44.72 49.18 51.16 51.11 51.52 52.88 52.68 53.48 54.91 54.85 54.44 55.38 54.49 54.40 55.06 55.01 54.47 52.29 52.83 53.89 53.55 54.00 54.90 56.98 58.00 62.47 65.37 67.35 68.55 62.93 63.07 63.87 64.42 66.94 68.93
39.39 39.30 41.34 35.06 42.71 41.11 40.74 41.34 41.91 41.92 39.86 42.18 42.02 43.96 45.54 49.83 45.46 42.35 43.47 46.44 48.30 50.32 52.57 53.20 53.03 53.45 53.05 53.94 55.48 55.02 56.16 54.76 53.91 51.69 54.69 54.31 53.18 53.67 53.30 53.38 53.78 55.04 58.23 58.95 61.97 65.24 68.03 67.38 65.90 70.25 66.58 63.70 65.67 69.25
34.37 41.48 38.20 42.03 42.57 42.35 42.51 39.79 41.06 41.12 42.31 41.22 42.62 48.14 48.37 45.49 41.66 41.70 45.55 49.78 52.57 53.41 53.83 54.41 53.87 53.95 54.18 55.67 54.54 53.78 54.09 56.14 55.73 52.53 54.75 54.58 54.13 52.98 52.08 51.34 51.84 53.58 57.30 58.97 61.79 64.78 67.03 68.36 68.17 67.91 67.44 65.18 56.56 67.66
34.45 41.19 45.31 48.67 47.45 46.00 44.45 44.72 45.93 43.95 41.38 41.76 43.79 45.17 44.79 40.85 41.43 47.20 52.93 54.54 54.63 54.51 54.34 55.93 57.36 55.97 55.21 56.63 57.34 53.97 53.57 53.89 54.92 54.95 55.95 56.64 57.34 55.11 54.17 52.72 52.58 53.93 57.24 58.02 61.08 62.36 63.81 65.71 66.38 65.68 65.13 64.87 65.65 65.40
43.91 45.12 42.24 45.00 44.83 45.89 43.15 42.78 41.84 41.85 43.95 47.28 47.36 43.26 42.59 43.20 45.08 50.73 51.10 54.11 55.81 55.91 57.07 58.49 58.02 55.49 57.51 57.32 57.10 57.16 55.80 56.16 57.52 59.36 59.18 58.18 58.36 55.86 56.04 55.94 56.42 48.36 55.55 54.35 57.65 61.05 61.66 62.27 61.72 62.11 62.87 62.66 62.95 63.87
44.26 46.81 46.38 43.30 44.28 44.12 44.03 43.50 45.84 48.95 49.57 48.38 46.91 46.59 47.01 50.27 52.55 53.56 54.49 55.82 56.14 55.12 52.94 52.91 55.39 58.94 58.13 57.13 56.44 55.52 56.10 55.14 54.01 51.26 50.79 51.42 52.48 53.46 55.46 55.42 55.80 57.12 57.84 57.02 49.92 50.69 55.25 57.72 59.66 60.20 59.86 59.78 59.92 60.49
44.82 48.31 44.43 43.36 41.89 42.32 46.81 49.13 49.31 50.61 51.80 52.62 51.69 51.17 50.98 51.87 54.84 56.78 55.54 54.53 53.95 52.76 53.98 54.47 53.34 54.73 54.55 55.02 54.79 55.85 57.34 56.84 54.62 52.90 50.55 50.34 51.95 53.76 54.50 54.66 54.71 55.82 57.68 57.27 56.50 56.77 51.22 54.78 53.25 55.82 56.32 57.32 57.26 57.18
48.42 47.35 45.76 46.35 45.67 48.19 49.94 51.38 51.74 52.36 51.61 50.64 51.15 49.66 49.05 51.44 53.64 55.76 55.23 55.65 55.28 54.29 54.30 53.66 53.67 53.75 54.40 52.96 54.19 53.93 51.53 52.07 55.36 53.66 52.58 53.10 54.09 53.51 54.06 54.84 54.96 55.78 57.12 57.62 57.32 56.50 55.90 54.79 54.13 53.81 54.10 54.54 53.93 53.95
47.01 46.01 45.57 44.21 45.68 49.60 50.98 49.72 49.53 48.93 49.33 48.75 49.00 50.36 50.92 50.69 49.53 52.97 55.77 54.19 52.64 51.91 49.80 51.43 51.82 51.40 53.50 53.58 54.54 54.30 47.20 52.09 55.25 53.58 52.77 52.39 51.81 51.95 52.25 54.47 54.90 55.32 55.82 56.62 57.41 57.23 56.50 54.73 54.02 54.22 54.81 54.55 54.63 54.96
47.44 47.89 47.59 46.92 46.54 45.89 49.36 48.60 47.27 47.01 48.31 47.84 48.74 50.82 51.33 50.50 47.72 54.33 55.83 56.17 54.56 53.14 53.45 53.69 53.79 54.92 55.43 55.23 54.78 54.74 50.59 55.30 49.69 42.54 43.05 42.53 41.80 43.79 50.76 51.72 53.75 55.64 55.50 55.17 56.52 56.50 56.55 55.87 55.42 55.43 55.29 55.16 54.82 54.46
MSLP
1028.60 1028.60 1028.45 1028.29 1028.17 1028.02 1027.77 1027.56 1027.31 1026.99 1026.66 1026.25 1025.77 1025.43 1025.09 1024.57 1023.95 1023.48 1021.11 1019.99 1020.13 1018.45 1015.80 1014.91 1014.02 1013.76 1013.06 1012.36 1011.67 1010.44 1010.00 1008.10 1006.67 1006.27 1005.12 1003.90 1002.30 1000.88 999.56 998.47 997.61 996.73 996.88 996.73 995.69 993.96 993.28 993.07 993.56 993.94 994.43 995.53 995.64 996.88
1028.09 1028.20 1028.17 1028.12 1028.00 1027.81 1027.68 1027.52 1027.29 1026.92 1026.49 1026.23 1025.93 1025.58 1025.30 1024.98 1024.59 1024.01 1021.35 1020.43 1020.47 1019.60 1016.90 1015.64 1014.79 1014.17 1014.22 1013.83 1013.56 1012.76 1011.75 1010.94 1009.96 1009.08 1007.76 1006.45 1005.18 1003.75 1001.50 999.10 997.98 996.78 996.13 996.09 996.20 994.61 993.78 993.36 993.09 992.82 993.00 994.06 995.28 994.41
1027.60 1027.57 1027.71 1027.79 1027.75 1027.71 1027.58 1027.40 1027.12 1026.81 1026.46 1026.07 1025.83 1025.58 1025.30 1024.97 1024.72 1024.53 1022.87 1021.17 1019.76 1018.47 1016.13 1013.86 1012.38 1012.29 1012.57 1012.92 1013.08 1012.98 1012.20 1011.78 1011.06 1010.57 1009.94 1008.96 1007.64 1006.11 1003.77 1001.15 999.67 998.03 997.00 996.81 996.63 996.41 995.96 995.79 993.81 993.39 992.75 993.72 994.89 994.76
1027.00 1027.20 1027.21 1027.25 1027.34 1027.33 1027.31 1027.19 1026.98 1026.69 1026.41 1026.05 1025.67 1025.39 1025.15 1024.93 1024.65 1024.42 1023.03 1021.46 1020.31 1019.42 1017.27 1013.24 1012.33 1013.05 1012.95 1012.39 1012.08 1011.93 1011.71 1011.64 1011.55 1011.17 1010.45 1009.52 1008.35 1006.99 1005.44 1003.93 1002.52 1001.81 1000.79 999.33 998.55 998.32 998.02 997.56 995.79 993.77 993.63 993.83 994.53 997.06
1026.22 1026.55 1026.75 1026.83 1026.85 1026.94 1026.94 1026.82 1026.68 1026.45 1026.21 1025.92 1025.55 1025.24 1025.04 1024.82 1024.44 1023.83 1022.50 1021.13 1020.26 1020.28 1018.14 1015.53 1014.20 1012.41 1011.77 1011.48 1011.44 1011.39 1011.42 1011.25 1011.01 1010.60 1009.92 1009.03 1008.47 1007.94 1006.66 1005.41 1003.14 1003.50 1002.05 1001.20 1000.94 1001.33 1001.36 999.49 998.54 996.94 993.77 993.44 993.76 993.55
1025.40 1025.85 1026.17 1026.34 1026.36 1026.53 1026.64 1026.41 1026.17 1026.01 1025.99 1025.70 1025.33 1025.14 1024.91 1024.68 1024.29 1022.88 1020.62 1021.10 1021.59 1020.97 1019.95 1016.92 1014.36 1012.46 1011.76 1011.15 1011.07 1010.87 1010.51 1010.24 1010.23 1009.98 1009.29 1008.62 1008.23 1007.85 1006.44 1004.90 1004.49 1003.68 1003.13 1001.96 1002.25 1001.37 1000.82 998.93 998.13 996.52 994.38 993.10 993.19 992.66
1024.73 1025.15 1025.58 1025.79 1025.84 1026.06 1026.15 1026.00 1025.72 1025.60 1025.56 1025.35 1025.08 1024.84 1024.69 1024.52 1024.05 1022.93 1022.86 1022.44 1022.68 1021.97 1021.02 1018.53 1015.00 1012.15 1011.68 1010.88 1010.09 1009.84 1009.55 1009.10 1009.00 1008.77 1008.44 1008.19 1007.79 1007.90 1006.50 1004.89 1004.90 1004.01 1003.51 1003.11 1002.95 1002.46 1000.28 998.79 998.41 997.00 997.24 993.98 993.57 992.74
1024.24 1024.58 1025.02 1025.30 1025.42 1025.54 1025.52 1025.48 1025.34 1025.23 1025.09 1024.89 1024.67 1024.44 1024.30 1024.14 1023.78 1022.80 1021.54 1022.07 1022.38 1021.95 1021.64 1020.02 1016.11 1012.96 1010.79 1010.99 1011.14 1011.12 1010.71 1010.20 1009.20 1008.20 1007.49 1007.00 1006.68 1006.65 1005.32 1004.44 1004.65 1004.24 1002.86 1002.82 1003.01 1002.32 1001.25 1000.38 999.98 997.00 996.19 993.31 993.91 993.14
1023.55 1024.03 1024.46 1024.76 1025.03 1024.94 1024.92 1024.86 1024.90 1024.83 1024.55 1024.28 1024.12 1023.92 1023.49 1023.22 1022.04 1021.94 1022.26 1022.12 1021.95 1022.25 1021.57 1020.37 1017.13 1013.53 1012.49 1012.64 1012.82 1012.69 1012.30 1010.91 1009.09 1007.77 1006.98 1007.15 1006.51 1005.48 1005.27 1005.66 1004.70 1004.01 1003.00 1002.09 1002.66 1001.88 1001.12 1000.36 998.76 996.81 995.10 995.49 995.12 993.56
1022.78 1023.45 1023.93 1024.30 1024.46 1024.51 1024.51 1024.46 1024.47 1024.31 1023.97 1023.82 1023.58 1021.96 1021.70 1021.58 1021.93 1022.09 1022.18 1022.13 1022.37 1022.39 1021.87 1019.69 1017.03 1014.98 1014.13 1013.92 1014.49 1015.36 1014.53 1012.97 1009.94 1008.08 1006.69 1006.13 1005.85 1005.62 1006.38 1006.02 1005.15 1004.47 1003.14 1002.30 1001.25 1000.96 1000.45 999.66 999.04 997.69 995.69 993.26 992.25 991.36
1021.88 1022.75 1023.22 1023.75 1023.98 1024.10 1024.13 1024.27 1024.20 1023.92 1023.20 1022.65 1021.63 1020.66 1020.88 1021.30 1021.17 1020.76 1020.70 1020.54 1020.64 1020.79 1020.32 1018.52 1016.66 1014.98 1014.50 1015.19 1016.41 1016.92 1016.37 1014.52 1012.06 1009.98 1009.52 1009.05 1008.71 1010.26 1009.95 1008.99 1007.56 1006.33 1005.04 1003.24 1001.64 1000.74 1000.13 999.47 998.70 997.65 996.18 995.13 993.80 991.84
1021.41 1022.05 1022.54 1023.17 1023.52 1023.71 1023.84 1023.96 1023.97 1023.69 1022.61 1023.18 1022.95 1021.55 1020.84 1020.25 1020.41 1020.11 1019.01 1018.36 1018.37 1017.59 1017.09 1016.11 1014.40 1014.08 1014.79 1015.93 1016.60 1017.37 1016.86 1015.60 1012.81 1011.75 1011.29 1010.15 1010.66 1010.94 1010.85 1009.72 1008.62 1007.75 1006.19 1004.46 1002.76 1001.12 1000.08 999.27 998.26 997.12 996.45 995.67 995.22 995.23
1020.90 1021.56 1022.18 1022.51 1022.89 1023.26 1023.41 1023.59 1023.61 1023.55 1023.25 1022.34 1022.21 1021.28 1020.31 1019.78 1019.35 1018.04 1016.65 1015.98 1015.60 1015.14 1014.75 1014.03 1013.35 1013.17 1014.18 1015.68 1016.67 1016.87 1016.01 1014.40 1013.08 1011.90 1010.55 1010.04 1010.43 1010.83 1010.72 1009.79 1008.72 1007.90 1006.61 1005.16 1003.43 1001.95 1000.80 999.38 998.29 997.69 996.80 996.48 996.44 993.71
1020.38 1021.02 1021.66 1021.98 1022.35 1022.69 1022.90 1023.14 1023.35 1023.39 1023.18 1022.06 1021.29 1020.40 1018.96 1017.31 1016.39 1015.14 1014.71 1013.90 1013.99 1013.74 1013.43 1012.84 1012.57 1012.76 1014.02 1015.64 1016.24 1015.79 1014.76 1013.31 1011.76 1010.54 1009.75 1009.65 1010.00 1010.20 1010.08 1009.43 1008.71 1007.55 1006.47 1005.19 1003.76 1002.23 1001.03 999.64 999.00 997.85 996.78 996.36 997.04 994.97
1019.90 1020.60 1021.10 1021.52 1021.81 1022.13 1022.45 1022.67 1023.00 1023.05 1022.23 1021.02 1020.02 1018.50 1016.20 1014.50 1013.13 1012.55 1012.63 1012.85 1012.83 1012.60 1012.26 1012.11 1012.23 1012.35 1013.83 1015.20 1015.26 1014.54 1013.17 1011.24 1010.21 1009.13 1008.91 1008.65 1009.28 1009.56 1009.16 1008.50 1007.94 1007.00 1006.01 1004.88 1003.76 1002.54 1000.89 1000.00 999.84 998.85 998.36 996.67 996.19 999.61
1019.61 1020.30 1020.42 1020.75 1021.17 1021.61 1022.05 1022.45 1022.54 1022.29 1021.34 1019.93 1018.66 1016.33 1014.17 1012.85 1011.75 1011.18 1011.11 1011.31 1011.35 1011.55 1011.87 1012.28 1012.55 1012.60 1013.06 1013.74 1013.08 1012.20 1011.17 1009.60 1008.71 1008.33 1007.73 1008.10 1008.70 1008.62 1008.54 1007.90 1007.05 1006.14 1005.37 1004.38 1003.34 1001.91 1000.73 999.82 999.43 999.10 999.31 998.49 998.85 999.03
1019.29 1019.13 1018.84 1019.91 1020.58 1021.02 1021.55 1021.77 1021.39 1021.22 1019.78 1018.43 1016.25 1014.72 1013.79 1012.72 1011.65 1011.14 1010.98 1010.94 1011.16 1011.59 1012.38 1012.81 1012.44 1011.40 1011.79 1011.38 1010.79 1010.08 1009.48 1008.30 1007.43 1006.98 1006.90 1007.38 1007.79 1007.99 1007.68 1006.89 1006.14 1005.31 1004.52 1003.61 1002.48 1000.98 999.94 999.51 999.70 998.88 999.67 999.00 998.24 998.47
1018.39 1018.24 1018.82 1019.68 1020.27 1020.75 1021.06 1021.23 1020.17 1019.29 1018.22 1016.53 1015.07 1013.32 1012.13 1011.53 1011.09 1010.88 1010.90 1011.17 1011.62 1011.97 1012.43 1012.70 1012.43 1011.42 1010.81 1010.07 1009.43 1009.13 1008.42 1007.44 1006.73 1006.45 1006.76 1006.92 1007.11 1006.98 1006.65 1005.88 1005.01 1004.26 1003.50 1002.47 1001.22 1000.10 999.09 999.30 999.58 999.86 999.21 998.94 999.45 999.07
1018.00 1018.30 1018.96 1019.43 1019.36 1019.57 1019.92 1019.73 1019.40 1018.06 1016.31 1014.70 1013.15 1012.20 1011.51 1011.27 1011.16 1011.05 1011.15 1011.58 1012.08 1012.46 1012.81 1012.34 1011.91 1010.35 1009.47 1009.04 1009.09 1008.72 1008.53 1007.12 1006.51 1006.53 1006.49 1006.34 1006.52 1006.29 1005.71 1004.99 1004.21 1003.18 1002.48 1001.45 999.94 998.66 998.70 998.14 998.64 999.31 998.64 998.88 999.01 999.98
1017.89 1018.43 1018.95 1019.46 1019.84 1019.13 1018.64 1018.35 1018.31 1017.34 1015.10 1013.03 1012.31 1011.71 1011.50 1011.29 1010.92 1010.88 1011.12 1011.45 1011.61 1012.20 1012.54 1012.14 1010.94 1009.95 1008.91 1008.57 1008.21 1007.94 1007.30 1007.07 1006.98 1006.59 1006.16 1006.01 1005.95 1005.60 1004.89 1004.03 1002.86 1001.93 1001.17 1000.05 999.01 998.47 997.64 997.18 997.98 997.95 998.72 998.66 998.69 998.94
1018.25 1018.88 1019.34 1019.39 1019.20 1018.83 1018.18 1017.50 1017.13 1016.25 1014.44 1013.16 1012.03 1011.71 1011.35 1010.97 1010.95 1010.84 1010.82 1011.08 1011.66 1011.71 1011.33 1010.89 1010.27 1009.68 1008.72 1008.54 1008.31 1007.59 1007.48 1007.36 1007.21 1006.84 1006.25 1005.62 1005.43 1004.93 1003.92 1003.22 1002.08 1000.90 1000.16 999.09 996.86 996.03 995.92 995.77 997.14 997.68 998.14 998.19 998.51 998.25
1017.69 1018.32 1018.55 1018.92 1018.72 1018.27 1017.50 1016.57 1016.03 1015.23 1014.67 1012.90 1011.92 1011.39 1011.16 1010.80 1010.25 1010.52 1010.80 1010.50 1010.35 1010.28 1010.42 1010.55 1009.87 1009.44 1009.02 1008.61 1007.91 1007.41 1007.43 1007.12 1006.64 1006.00 1005.88 1005.56 1005.12 1004.33 1003.47 1002.67 1001.61 1000.25 999.42 997.92 997.67 996.67 995.24 995.80 996.32 996.00 995.29 995.71 996.59 997.51
1017.81 1017.66 1017.67 1017.53 1017.68 1017.52 1016.51 1015.12 1015.27 1014.52 1013.97 1012.73 1011.83 1011.64 1011.28 1010.36 1010.52 1011.00 1010.55 1010.60 1010.33 1010.26 1010.39 1010.01 1009.21 1008.84 1008.42 1007.75 1007.75 1007.25 1006.99 1006.62 1006.07 1005.92 1005.88 1005.25 1004.72 1003.96 1002.95 1002.36 1001.56 1000.34 999.59 998.73 997.98 997.16 995.64 994.29 996.99 996.52 995.81 996.25 997.12 997.49
1016.99 1016.66 1016.64 1016.63 1016.66 1016.07 1015.09 1014.70 1014.64 1013.90 1013.28 1012.66 1012.16 1011.47 1010.78 1010.55 1010.53 1010.71 1010.98 1010.99 1010.38 1010.21 1009.67 1009.38 1008.76 1008.30 1008.01 1007.73 1007.58 1006.99 1006.70 1006.44 1006.43 1006.12 1005.61 1005.25 1004.19 1003.09 1002.25 1001.73 1001.12 1000.36 999.12 998.29 997.39 996.34 995.39 993.98 993.04 993.88 996.68 996.65 997.27 995.20
1016.98 1016.56 1016.39 1016.20 1015.85 1015.19 1013.87 1013.26 1013.02 1012.97 1012.50 1012.01 1011.56 1010.74 1010.44 1010.62 1010.51 1010.82 1010.64 1010.52 1010.18 1009.98 1009.54 1009.27 1009.18 1008.69 1008.18 1007.72 1007.32 1006.88 1006.08 1006.64 1006.75 1006.25 1005.70 1005.37 1004.55 1003.49 1002.07 1000.76 1000.13 999.89 999.43 998.16 996.77 996.21 994.90 994.87 992.44 992.74 994.04 995.64 995.71 994.46
1015.89 1015.09 1015.01 1013.69 1013.25 1012.82 1012.10 1011.84 1011.74 1011.81 1011.52 1011.36 1010.94 1010.29 1009.83 1010.19 1010.19 1009.99 1010.04 1010.05 1009.84 1009.61 1009.22 1008.89 1008.70 1008.40 1008.17 1008.09 1007.62 1007.23 1006.96 1006.71 1006.61 1006.46 1005.84 1005.44 1004.97 1004.46 1003.32 1002.41 1001.43 999.87 998.65 998.61 997.21 996.12 994.70 992.82 991.62 990.44 994.11 994.83 994.84 995.14
1014.51 1012.76 1012.44 1012.29 1011.75 1011.71 1011.32 1011.12 1010.94 1010.94 1010.84 1010.27 1010.19 1009.82 1009.62 1009.34 1009.13 1008.98 1008.64 1009.02 1009.16 1009.04 1008.85 1008.33 1008.46 1008.14 1007.94 1007.81 1007.68 1007.54 1007.27 1007.08 1006.85 1006.51 1005.98 1005.79 1005.48 1005.08 1004.18 1003.20 1002.33 1002.07 1000.78 999.14 997.83 997.06 995.80 995.23 995.70 995.93 996.34 996.68 996.54 997.17
1012.40 1011.12 1010.95 1010.82 1010.64 1010.93 1010.94 1011.00 1010.95 1010.41 1009.76 1009.65 1009.57 1009.19 1009.29 1008.76 1008.60 1008.12 1008.24 1008.21 1008.06 1008.09 1007.89 1007.87 1007.90 1008.36 1008.19 1007.97 1007.96 1007.64 1007.35 1006.84 1005.88 1005.55 1005.65 1005.72 1005.38 1004.99 1004.34 1003.74 1002.79 1002.14 1001.39 1000.50 999.76 998.84 998.08 997.43 997.35 997.37 998.00 998.56 999.37 999.94
1011.04 1010.20 1010.21 1010.52 1010.43 1010.46 1010.52 1010.33 1009.84 1009.22 1009.15 1008.96 1008.96 1008.71 1008.40 1007.76 1007.29 1007.34 1007.34 1007.38 1007.72 1007.82 1007.90 1007.69 1008.12 1008.06 1007.99 1008.18 1008.10 1007.96 1007.89 1007.40 1006.48 1006.15 1006.19 1006.07 1005.77 1005.55 1005.14 1004.32 1003.66 1002.99 1002.34 1002.16 1001.83 1000.89 1000.20 999.95 999.68 999.97 1000.46 1000.85 1001.48 1002.08
1009.66 1009.32 1009.65 1010.10 1010.31 1010.10 1009.36 1008.94 1008.57 1008.56 1008.00 1007.88 1007.88 1007.61 1007.17 1006.82 1006.50 1006.83 1006.95 1007.55 1007.70 1007.93 1007.70 1007.83 1008.25 1007.52 1007.67 1007.94 1007.93 1007.94 1007.98 1007.39 1007.28 1007.32 1007.29 1007.28 1007.29 1006.85 1006.21 1005.55 1004.90 1004.56 1003.83 1003.59 1002.87 1002.26 1001.95 1001.85 1001.34 1001.73 1001.99 1002.75 1003.46 1003.97
1008.69 1008.74 1009.15 1009.16 1008.86 1008.66 1008.27 1007.71 1007.59 1007.39 1007.19 1007.01 1007.09 1006.89 1006.65 1006.72 1006.62 1007.20 1007.47 1007.46 1007.92 1008.07 1008.10 1007.98 1007.94 1007.96 1007.95 1007.76 1007.60 1007.66 1008.01 1008.42 1008.19 1008.47 1008.55 1008.37 1007.92 1007.53 1007.09 1006.74 1006.00 1005.75 1005.47 1004.84 1004.75 1004.37 1004.04 1004.04 1004.17 1004.54 1004.84 1005.08 1005.63 1006.19
1008.19 1008.44 1008.27 1008.08 1007.93 1007.76 1007.53 1007.44 1007.10 1006.99 1006.97 1006.91 1006.81 1007.11 1006.83 1007.06 1007.30 1007.82 1007.69 1008.10 1008.32 1008.44 1008.67 1008.31 1007.67 1007.78 1008.01 1008.06 1007.88 1008.11 1008.32 1008.39 1008.01 1008.60 1008.64 1008.62 1008.33 1008.36 1008.17 1007.87 1007.41 1007.04 1006.54 1006.23 1006.33 1006.25 1005.96 1006.20 1006.64 1007.05 1007.15 1007.26 1007.56 1007.95
1007.70 1007.60 1007.76 1007.70 1007.68 1007.73 1007.77 1008.06 1008.14 1008.12 1008.04 1007.82 1007.74 1007.96 1007.94 1007.96 1008.01 1008.23 1008.34 1008.38 1008.24 1007.80 1007.94 1007.77 1007.46 1007.44 1007.63 1007.48 1007.64 1007.85 1008.06 1008.18 1008.68 1008.87 1009.02 1009.07 1009.10 1008.86 1008.70 1008.85 1008.70 1008.28 1007.83 1007.55 1007.52 1007.43 1007.58 1007.70 1007.74 1008.06 1008.21 1008.23 1008.56 1008.95
Wind_Speed
11 10 11 10 10 11 11 11 13 15 15 16 16 16 17 19 19 14 9 8 7 6 16 15 13 13 14 11 11 15 13 10 9 11 11 14 16 17 22 22 22 21 7 13 19 16 19 12 13 12 15 10 12 15
11 11 10 11 10 10 10 11 12 13 13 14 14 15 14 14 15 15 8 9 7 8 13 25 25 23 20 18 13 9 12 16 7 8 9 8 15 13 19 16 20 21 20 11 15 16 11 17 19 16 14 10 7 3
12 11 11 11 11 11 10 10 11 13 13 12 13 13 13 13 14 11 9 10 9 9 13 6 5 3 11 10 8 7 8 14 14 12 10 10 15 13 13 14 19 20 18 14 9 16 15 25 6 20 0 10 7 5
14 12 11 11 12 11 11 11 11 12 13 13 12 13 13 12 13 12 8 10 7 7 7 3 13 18 21 17 19 17 15 15 15 11 11 12 14 11 15 19 20 15 20 19 15 3 10 25 20 19 6 13 14 19
15 13 12 12 12 12 11 11 11 12 13 14 13 13 12 12 13 11 10 9 8 5 8 14 23 15 11 11 13 12 11 15 12 12 12 14 14 15 14 17 18 17 18 14 12 14 10 16 20 36 18 13 26 26
15 14 13 12 12 12 13 12 12 11 12 13 13 13 13 12 12 9 2 6 9 6 7 8 12 9 7 7 9 12 12 12 10 11 10 12 19 17 15 17 22 26 24 25 14 21 11 22 27 37 27 14 16 12
16 14 13 12 11 13 13 13 12 12 12 13 13 13 12 9 8 7 5 4 8 8 4 7 7 7 11 15 10 7 11 8 10 11 13 14 15 14 15 18 18 26 24 25 24 24 23 22 25 36 15 14 18 10
15 13 13 12 12 13 13 12 12 12 14 14 13 13 11 9 11 8 2 9 7 4 3 4 7 10 7 8 7 10 11 13 13 14 14 14 13 12 20 24 21 25 27 21 20 19 20 20 27 35 4 13 17 28
16 13 14 12 13 12 11 10 12 14 14 15 14 15 7 6 3 3 5 4 5 2 2 4 5 7 8 8 10 8 6 9 8 14 15 14 14 16 18 18 20 21 24 25 22 26 23 27 29 23 27 26 32 32
17 15 13 13 12 11 9 10 12 14 15 13 9 6 3 3 16 12 3 3 2 1 2 5 9 11 10 9 5 5 4 6 9 7 11 10 15 21 16 20 17 20 22 23 20 19 20 21 22 26 26 28 19 15
18 16 13 12 11 10 9 10 11 12 14 5 5 4 6 10 5 3 4 5 5 4 5 6 9 10 6 7 1 2 4 7 5 2 7 4 4 13 23 21 21 24 25 26 22 20 21 20 22 24 21 25 19 15
18 16 13 12 10 10 10 10 8 5 3 5 5 7 4 3 2 5 5 4 7 5 7 7 6 6 2 4 3 3 4 4 8 5 3 4 4 7 18 22 23 22 24 23 23 22 20 22 24 25 17 18 21 26
17 14 13 11 10 11 11 10 9 9 10 2 4 3 4 6 4 6 5 5 5 4 6 6 10 5 5 3 2 3 6 7 5 3 4 3 3 7 15 18 20 20 22 22 22 20 22 23 23 24 13 8 14 32
17 14 13 11 11 11 10 9 9 6 5 3 3 3 6 7 7 7 9 5 3 5 9 9 9 6 3 3 3 5 6 5 4 4 4 2 5 9 13 14 15 19 20 18 19 19 20 23 23 11 7 1 15 18
16 14 12 11 12 11 11 9 8 6 4 4 5 6 10 11 9 8 8 7 8 9 9 7 9 3 2 3 4 5 6 6 5 4 8 7 6 9 14 15 15 16 15 15 14 16 18 17 10 4 6 3 18 9
15 10 8 12 14 14 10 8 5 4 4 5 7 9 10 9 8 6 3 6 5 4 5 4 4 4 6 4 6 7 5 4 6 8 9 5 8 12 13 15 17 15 13 13 14 16 16 13 14 3 7 5 6 5
15 5 15 19 13 12 14 7 5 5 5 5 8 10 11 10 8 7 6 6 5 4 4 3 6 4 4 5 5 2 4 11 11 10 5 4 6 10 14 17 16 14 12 12 14 16 16 14 9 4 9 5 2 5
6 8 18 19 14 9 7 5 4 5 8 8 10 11 10 8 7 6 6 5 6 4 3 6 6 12 9 8 11 10 11 13 11 10 11 9 10 10 13 16 15 14 13 13 15 15 13 11 10 8 6 3 1 6
3 10 19 19 11 3 5 5 4 5 8 9 9 10 8 6 6 7 6 4 4 2 3 4 7 8 10 7 10 12 13 12 12 12 12 14 11 12 14 15 16 15 11 14 15 9 9 12 12 11 8 2 3 10
8 16 15 14 7 3 5 4 4 5 7 5 6 8 4 7 8 5 5 6 5 3 4 6 10 13 11 10 7 8 10 12 11 13 13 10 8 12 14 14 13 14 10 12 15 15 10 5 10 11 13 17 16 15
10 7 10 7 6 4 4 2 4 6 7 7 7 3 6 5 4 6 7 5 7 5 6 9 11 12 14 12 13 11 11 11 11 10 12 12 9 10 12 10 12 8 6 8 8 8 10 9 7 8 10 12 11 6
6 17 5 6 3 3 5 6 4 3 4 8 8 5 5 8 8 2 6 8 8 6 2 6 9 8 10 14 10 12 11 12 13 9 9 9 8 11 11 11 10 8 7 7 8 9 10 5 11 6 6 10 8 9
14 7 3 6 4 3 7 5 5 4 4 4 3 2 5 4 2 3 3 3 3 2 6 9 11 12 14 14 11 13 11 13 10 9 9 8 8 9 10 11 9 9 7 6 7 9 7 15 18 13 6 8 11 16
3 5 5 5 6 5 4 4 4 4 4 5 3 4 4 2 3 2 2 3 5 6 8 8 9 9 10 9 7 10 9 8 9 9 6 9 9 11 11 11 9 9 7 8 9 8 12 13 9 23 25 13 15 18
3 3 5 3 5 6 6 6 6 4 4 4 7 5 1 1 2 2 2 4 4 4 6 7 7 8 9 8 7 8 10 7 7 9 8 6 8 10 12 12 11 8 7 8 8 10 8 5 17 24 32 27 23 8
3 7 7 8 7 7 4 1 6 6 7 4 5 4 1 2 2 4 2 3 4 5 6 6 7 8 7 7 8 7 8 8 6 6 6 7 8 9 11 12 12 12 12 9 9 7 4 9 8 23 18 16 17 20
4 7 7 7 3 2 4 4 4 3 5 2 1 3 2 3 2 2 2 2 2 3 5 5 5 6 7 7 6 3 4 7 8 7 7 4 7 7 7 10 12 9 10 13 11 8 6 14 16 17 17 15 17 17
8 3 6 7 7 7 6 1 3 3 3 2 3 1 3 2 3 2 1 4 2 4 5 6 4 5 5 5 4 6 5 8 9 6 1 1 5 6 10 9 9 15 9 12 11 8 11 13 16 20 21 19 17 16
7 6 4 4 3 2 3 5 5 4 3 1 2 2 3 3 1 1 3 3 6 5 5 7 4 1 4 4 3 5 5 8 12 13 14 9 9 8 9 9 9 8 7 11 19 16 17 13 18 20 23 19 18 17
7 6 5 5 7 7 6 7 3 6 6 3 6 6 7 5 1 1 2 7 6 7 6 7 5 5 7 4 4 5 4 8 10 9 7 9 8 7 9 10 10 9 7 7 9 11 15 12 16 17 18 16 15 15
4 6 6 6 8 9 10 7 7 8 7 7 6 7 5 4 4 7 5 6 6 5 6 5 5 3 5 6 4 6 8 6 9 11 6 4 7 7 9 11 11 9 9 7 8 9 13 13 14 16 17 18 18 16
5 7 7 6 7 6 9 7 6 6 7 6 4 6 5 4 4 3 3 5 2 2 2 6 3 5 5 2 2 6 5 1 4 5 5 4 4 5 5 7 9 10 11 11 8 7 13 14 11 11 12 15 14 14
7 5 5 6 5 4 4 4 4 5 5 6 5 5 6 4 3 2 4 2 3 3 2 4 3 4 2 2 3 1 3 4 5 4 4 5 6 8 6 6 6 7 10 8 7 6 8 11 10 10 10 13 12 12
Wind_Direction
268 276 282 288 297 309 319 325 329 334 340 346 348 351 355 352 349 346 303 34 344 307 291 287 331 318 320 310 304 323 328 27 310 261 269 270 262 257 260 260 263 262 156 280 279 250 255 263 182 169 210 198 204 253
257 270 275 285 289 296 308 314 320 324 334 337 339 342 345 345 345 338 303 350 337 277 294 308 287 268 262 270 278 277 282 311 315 327 329 328 323 311 303 282 260 257 268 247 246 282 270 244 258 272 280 203 204 112
248 257 268 277 281 289 300 305 313 319 324 326 328 332 336 337 335 337 308 294 305 298 300 295 359 75 204 212 220 264 259 264 275 282 310 295 278 306 294 292 292 303 282 304 225 265 289 304 313 296 135 143 116 340
238 249 260 267 274 282 292 298 305 310 314 315 319 323 326 325 320 318 300 304 299 293 290 273 347 328 304 284 275 268 268 270 276 278 275 272 276 283 278 293 297 296 329 314 318 315 290 282 296 254 152 99 70 189
227 237 251 264 270 276 280 288 295 305 309 308 312 316 318 317 314 298 273 271 302 289 305 307 297 292 285 302 287 275 257 263 267 268 265 262 263 267 273 278 274 286 292 301 313 4 325 288 302 316 278 187 172 221
218 226 241 253 261 274 276 282 291 301 301 303 308 308 310 313 321 292 163 61 2 2 319 305 350 292 287 273 269 279 265 252 246 262 261 267 268 268 269 268 281 286 289 291 308 343 321 294 304 305 295 263 284 178
213 221 236 245 257 263 271 281 291 296 297 296 297 295 296 299 294 289 350 352 350 311 284 295 293 333 280 268 253 289 318 265 239 245 250 259 259 268 272 272 279 277 279 284 298 307 314 321 297 298 332 13 359 246
212 218 235 243 249 259 270 282 291 293 292 290 287 283 283 280 268 258 175 214 228 285 266 285 270 263 25 2 337 337 317 307 284 282 272 263 260 247 248 247 257 267 280 286 295 276 277 289 286 280 44 65 7 288
204 217 231 239 248 258 270 281 288 288 287 285 288 283 272 217 237 100 101 127 184 309 242 230 273 319 0 345 339 330 303 289 269 262 261 254 258 249 265 272 271 259 262 275 285 292 295 290 300 313 302 166 185 240
203 212 224 231 246 257 268 277 283 286 283 290 272 205 185 35 119 146 167 179 150 225 261 267 278 274 302 339 352 341 332 287 302 298 302 252 248 250 272 278 298 291 275 269 270 263 275 281 290 304 304 313 315 174
192 204 209 228 241 248 260 271 281 297 272 222 252 47 94 159 224 198 227 228 150 217 205 238 247 281 336 317 339 261 306 294 283 16 339 322 4 341 337 329 327 324 320 316 291 277 283 288 287 292 303 305 308 248
193 194 198 222 235 246 252 258 266 260 355 343 291 264 249 228 223 239 220 208 199 236 182 241 277 291 268 156 224 168 250 252 256 349 302 238 197 356 322 319 317 317 316 311 306 301 295 291 294 300 288 311 327 329
188 188 202 211 223 238 242 246 244 275 285 260 245 238 219 203 238 222 225 200 206 208 192 262 295 291 129 69 198 243 240 243 310 242 259 273 329 328 318 311 311 308 308 309 301 296 290 290 296 303 307 281 332 343
177 186 203 206 220 231 232 233 233 243 251 225 243 245 231 196 236 185 237 305 260 277 283 275 293 285 85 178 233 254 236 253 266 245 247 282 286 297 315 303 298 299 300 301 297 294 281 278 295 301 286 283 77 323
174 190 198 212 219 221 219 215 218 225 258 238 210 235 225 246 233 204 202 229 243 256 274 309 296 328 138 223 220 251 244 242 236 284 303 298 289 308 317 309 299 294 301 304 299 284 273 285 288 310 295 169 96 265
171 178 211 207 207 207 198 191 191 237 239 231 226 249 266 269 262 253 241 229 253 305 337 342 305 253 210 218 218 229 246 267 294 300 287 308 320 324 315 306 303 297 291 289 285 273 279 272 272 226 257 186 163 302
167 209 190 185 189 176 182 203 194 231 244 234 237 224 253 273 275 278 296 304 313 304 294 293 255 257 269 227 238 260 268 286 308 318 359 0 334 316 299 295 295 290 291 286 277 266 263 269 141 139 222 243 285 349
199 176 148 151 154 147 171 216 234 231 239 243 256 257 255 265 283 291 302 324 314 293 251 243 264 274 276 283 296 306 318 308 312 323 331 329 312 290 292 293 293 291 290 284 262 253 258 255 170 185 182 140 314 325
146 157 158 167 181 172 168 204 238 258 246 261 250 256 263 293 295 286 284 302 275 304 288 232 236 252 261 277 287 304 297 302 330 322 320 323 328 305 295 295 290 289 277 273 257 242 245 239 152 169 141 297 287 247
159 145 164 175 207 211 216 197 202 253 271 254 263 263 290 273 274 261 265 261 218 185 201 227 246 264 280 302 298 281 306 330 320 311 310 321 318 317 306 303 299 297 283 269 239 225 232 229 166 155 180 192 207 225
166 135 132 183 204 232 286 236 232 252 283 285 266 303 280 315 294 272 266 219 225 217 228 235 258 273 301 320 307 300 326 312 304 304 309 311 322 310 304 297 294 291 285 273 255 230 223 248 137 169 188 210 218 221
125 175 150 184 226 234 253 226 235 295 264 275 289 275 299 273 269 339 310 272 263 280 322 302 284 286 292 282 296 316 318 309 301 299 310 311 316 309 312 313 315 317 309 320 307 277 256 308 156 196 210 232 216 235
154 175 175 189 207 207 258 222 220 225 265 272 304 305 258 263 59 321 270 315 287 304 313 287 284 285 286 304 315 305 309 312 322 333 317 319 312 302 308 320 321 313 304 297 285 274 275 271 140 159 281 259 229 225
154 180 188 189 195 244 219 208 222 240 229 245 249 256 276 308 346 328 266 274 286 309 289 295 304 318 307 301 303 307 317 338 334 314 332 328 321 319 324 323 331 320 308 287 275 283 268 267 288 163 171 205 251 193
108 250 128 222 218 237 230 205 195 218 243 241 269 268 193 216 297 278 314 285 335 320 339 332 313 305 304 311 309 307 330 9 335 325 325 329 327 322 325 335 338 326 320 327 314 304 323 356 297 157 137 146 213 177
202 202 189 207 194 214 228 242 199 229 255 247 235 252 191 235 240 250 219 312 339 330 323 323 324 321 326 340 332 349 338 353 329 332 320 343 341 339 333 336 336 332 345 339 328 338 341 108 54 72 85 100 104 98
231 221 187 223 241 233 255 270 238 234 261 255 198 261 274 263 299 296 146 171 231 252 304 355 318 334 333 339 347 349 330 323 321 290 296 311 343 342 330 329 331 329 325 339 0 354 35 91 97 99 95 90 89 96
253 253 207 216 208 196 233 329 298 257 256 224 242 261 343 289 246 347 159 243 339 298 307 261 91 316 342 12 10 7 333 318 309 326 55 35 15 351 354 345 340 344 5 13 2 38 53 75 87 87 91 94 98 96
240 229 179 228 229 257 256 211 241 231 223 238 309 275 261 280 80 316 293 35 44 17 354 343 339 105 73 59 47 39 345 358 15 30 23 17 8 1 355 360 360 359 11 57 35 43 52 63 86 90 86 82 77 72
222 210 166 169 214 226 227 231 222 252 257 231 250 246 261 276 240 239 357 59 22 354 352 16 357 14 29 13 3 50 35 28 36 26 0 16 5 4 0 17 9 8 13 46 52 41 51 68 67 74 81 82 80 76
216 179 177 211 224 227 242 242 226 248 252 255 266 270 274 310 36 35 36 29 29 25 4 11 15 7 37 347 26 43 50 26 45 56 29 359 27 12 15 15 5 16 30 36 57 59 68 60 64 74 79 84 88 90
179 194 221 227 248 202 222 228 275 280 285 296 291 299 314 335 328 326 38 74 5 306 311 287 324 60 96 359 355 85 74 41 70 90 36 10 13 10 14 16 9 15 21 29 38 62 79 81 84 81 88 97 98 100
208 228 264 294 313 342 344 351 322 317 308 292 287 303 309 269 247 180 73 49 313 346 148 269 310 105 132 322 104 81 192 86 76 95 122 98 58 30 29 27 7 1 4 18 48 59 99 117 112 122 119 112 110 114